| time (UTC) | temp F | wind direction | speed MPH | gust MPH | rain 1hr in | rain 24hr in | rain mn in | humidity % | barometer mb |
| 20260508213104 | 86 | 203 | 8.0 | 18.0 | 0.00 | 0.00 | 0.00 | 46 | 1005.5 |
| 20260508212604 | 85 | 203 | 14.0 | 18.0 | 0.00 | 0.00 | 0.00 | 46 | 1005.7 |
| 20260508212104 | 86 | 188 | 9.0 | 17.0 | 0.00 | 0.00 | 0.00 | 46 | 1005.8 |
| 20260508211604 | 86 | 196 | 12.0 | 17.0 | 0.00 | 0.00 | 0.00 | 46 | 1005.9 |
| 20260508211104 | 86 | 200 | 10.0 | 17.0 | 0.00 | 0.00 | 0.00 | 46 | 1006.1 |
| 20260508210604 | 85 | 197 | 5.0 | 17.0 | 0.00 | 0.00 | 0.00 | 47 | 1006.1 |
| 20260508205105 | 84 | 177 | 6.0 | 16.0 | 0.00 | 0.00 | 0.00 | 49 | 1006.5 |
| 20260508204604 | 85 | 210 | 11.0 | 20.0 | 0.00 | 0.00 | 0.00 | 48 | 1006.6 |
| 20260508203604 | 84 | 196 | 7.0 | 17.0 | 0.00 | 0.00 | 0.00 | 50 | 1006.7 |
| 20260508202604 | 84 | 206 | 10.0 | 16.0 | 0.00 | 0.00 | 0.00 | 50 | 1006.9 |
| 20260508202104 | 84 | 195 | 10.0 | 20.0 | 0.00 | 0.00 | 0.00 | 50 | 1007.0 |
| 20260508201604 | 84 | 223 | 10.0 | 20.0 | 0.00 | 0.00 | 0.00 | 50 | 1007.1 |
| 20260508195604 | 83 | 200 | 9.0 | 14.0 | 0.00 | 0.00 | 0.00 | 52 | 1007.3 |
| 20260508195104 | 83 | 192 | 10.0 | 17.0 | 0.00 | 0.00 | 0.00 | 51 | 1007.4 |
| 20260508194603 | 83 | 203 | 12.0 | 17.0 | 0.00 | 0.00 | 0.00 | 52 | 1007.3 |
| 20260508194104 | 83 | 214 | 9.0 | 16.0 | 0.00 | 0.00 | 0.00 | 51 | 1007.5 |
| 20260508193604 | 84 | 201 | 10.0 | 16.0 | 0.00 | 0.00 | 0.00 | 52 | 1007.5 |
| 20260508192604 | 82 | 226 | 9.0 | 16.0 | 0.00 | 0.00 | 0.00 | 52 | 1007.5 |
| 20260508192104 | 83 | 209 | 9.0 | 17.0 | 0.00 | 0.00 | 0.00 | 51 | 1007.6 |
| 20260508191605 | 82 | 182 | 12.0 | 18.0 | 0.00 | 0.00 | 0.00 | 52 | 1007.7 |
| 20260508190104 | 82 | 226 | 12.0 | 20.0 | 0.00 | 0.00 | 0.00 | 51 | 1007.8 |
| 20260508185604 | 81 | 201 | 10.0 | 21.0 | 0.00 | 0.00 | 0.00 | 52 | 1007.8 |
| 20260508185105 | 81 | 203 | 14.0 | 21.0 | 0.00 | 0.00 | 0.00 | 53 | 1007.9 |
| 20260508184604 | 81 | 213 | 13.0 | 21.0 | 0.00 | 0.00 | 0.00 | 52 | 1008.0 |
| 20260508184104 | 82 | 216 | 12.0 | 18.0 | 0.00 | 0.00 | 0.00 | 52 | 1008.1 |
| 20260508183604 | 81 | 200 | 13.0 | 20.0 | 0.00 | 0.00 | 0.00 | 53 | 1008.1 |
| 20260508182604 | 81 | 196 | 14.0 | 20.0 | 0.00 | 0.00 | 0.00 | 52 | 1008.2 |
| 20260508181604 | 80 | 224 | 13.0 | 21.0 | 0.00 | 0.00 | 0.00 | 54 | 1008.4 |
| 20260508180604 | 80 | 186 | 15.0 | 24.0 | 0.00 | 0.00 | 0.00 | 55 | 1008.6 |
| 20260508180105 | 79 | 210 | 12.0 | 24.0 | 0.00 | 0.00 | 0.00 | 54 | 1008.7 |
| 20260508175604 | 79 | 194 | 12.0 | 24.0 | 0.00 | 0.00 | 0.00 | 54 | 1008.8 |
| 20260508175104 | 79 | 188 | 13.0 | 20.0 | 0.00 | 0.00 | 0.00 | 54 | 1008.9 |
| 20260508174604 | 78 | 213 | 12.0 | 20.0 | 0.00 | 0.00 | 0.00 | 54 | 1008.9 |
| 20260508173104 | 77 | 194 | 13.0 | 20.0 | 0.00 | 0.00 | 0.00 | 55 | 1009.2 |
| 20260508172104 | 78 | 219 | 13.0 | 22.0 | 0.00 | 0.00 | 0.00 | 54 | 1009.3 |
| 20260508171604 | 77 | 180 | 12.0 | 22.0 | 0.00 | 0.00 | 0.00 | 55 | 1009.4 |
| 20260508171104 | 77 | 213 | 14.0 | 21.0 | 0.00 | 0.00 | 0.00 | 55 | 1009.5 |
| 20260508170604 | 77 | 203 | 13.0 | 21.0 | 0.00 | 0.00 | 0.00 | 53 | 1009.7 |
| 20260508170104 | 77 | 196 | 13.0 | 21.0 | 0.00 | 0.00 | 0.00 | 55 | 1009.9 |
| 20260508165605 | 76 | 212 | 12.0 | 22.0 | 0.00 | 0.00 | 0.00 | 56 | 1010.0 |
| 20260508165104 | 75 | 200 | 15.0 | 22.0 | 0.00 | 0.00 | 0.00 | 55 | 1010.0 |
| 20260508164104 | 76 | 198 | 14.0 | 23.0 | 0.00 | 0.00 | 0.00 | 54 | 1010.2 |
| 20260508163104 | 74 | 213 | 13.0 | 22.0 | 0.00 | 0.00 | 0.00 | 53 | 1010.5 |
| 20260508162604 | 75 | 211 | 15.0 | 22.0 | 0.00 | 0.00 | 0.00 | 53 | 1010.5 |
| 20260508162104 | 76 | 215 | 13.0 | 21.0 | 0.00 | 0.00 | 0.00 | 52 | 1010.6 |
| 20260508161605 | 75 | 192 | 13.0 | 21.0 | 0.00 | 0.00 | 0.00 | 53 | 1010.6 |
| 20260508161104 | 75 | 198 | 15.0 | 21.0 | 0.00 | 0.00 | 0.00 | 53 | 1010.6 |
| 20260508160604 | 74 | 196 | 14.0 | 22.0 | 0.00 | 0.00 | 0.00 | 55 | 1010.6 |
| 20260508160105 | 74 | 188 | 16.0 | 22.0 | 0.00 | 0.00 | 0.00 | 54 | 1010.7 |
| 20260508155604 | 73 | 207 | 17.0 | 23.0 | 0.00 | 0.00 | 0.00 | 54 | 1010.8 |
| 20260508155104 | 73 | 209 | 15.0 | 26.0 | 0.00 | 0.00 | 0.00 | 55 | 1010.8 |
| 20260508154604 | 72 | 186 | 16.0 | 26.0 | 0.00 | 0.00 | 0.00 | 55 | 1010.8 |
| 20260508154104 | 72 | 197 | 17.0 | 23.0 | 0.00 | 0.00 | 0.00 | 55 | 1010.7 |
| 20260508153604 | 72 | 194 | 18.0 | 24.0 | 0.00 | 0.00 | 0.00 | 56 | 1010.8 |
| 20260508152604 | 72 | 200 | 17.0 | 24.0 | 0.00 | 0.00 | 0.00 | 56 | 1011.1 |
| 20260508152103 | 71 | 190 | 14.0 | 25.0 | 0.00 | 0.00 | 0.00 | 57 | 1011.3 |
| 20260508151603 | 71 | 222 | 17.0 | 26.0 | 0.00 | 0.00 | 0.00 | 57 | 1011.3 |
| 20260508151104 | 70 | 207 | 21.0 | 26.0 | 0.00 | 0.00 | 0.00 | 56 | 1011.4 |
| 20260508150604 | 71 | 206 | 14.0 | 28.0 | 0.00 | 0.00 | 0.00 | 59 | 1011.4 |
| 20260508145604 | 70 | 199 | 18.0 | 25.0 | 0.00 | 0.00 | 0.00 | 59 | 1011.4 |
| 20260508145104 | 70 | 192 | 17.0 | 25.0 | 0.00 | 0.00 | 0.00 | 59 | 1011.5 |
| 20260508144604 | 69 | 195 | 18.0 | 24.0 | 0.00 | 0.00 | 0.00 | 61 | 1011.6 |
| 20260508143603 | 69 | 206 | 16.0 | 23.0 | 0.00 | 0.00 | 0.00 | 61 | 1011.6 |
| 20260508143104 | 69 | 202 | 14.0 | 24.0 | 0.00 | 0.00 | 0.00 | 63 | 1011.6 |
| 20260508142604 | 68 | 199 | 16.0 | 24.0 | 0.00 | 0.00 | 0.00 | 63 | 1011.5 |
| 20260508141604 | 67 | 205 | 17.0 | 26.0 | 0.00 | 0.00 | 0.00 | 64 | 1011.6 |
| 20260508141104 | 67 | 195 | 16.0 | 23.0 | 0.00 | 0.00 | 0.00 | 64 | 1011.5 |
| 20260508135604 | 66 | 188 | 16.0 | 24.0 | 0.00 | 0.00 | 0.00 | 65 | 1011.7 |
| 20260508135104 | 65 | 198 | 16.0 | 24.0 | 0.00 | 0.00 | 0.00 | 65 | 1011.7 |
| 20260508134604 | 65 | 192 | 17.0 | 24.0 | 0.00 | 0.00 | 0.00 | 66 | 1011.7 |
| 20260508134104 | 65 | 203 | 17.0 | 25.0 | 0.00 | 0.00 | 0.00 | 66 | 1011.7 |
| 20260508133104 | 64 | 186 | 16.0 | 22.0 | 0.00 | 0.00 | 0.00 | 67 | 1011.8 |
| 20260508132604 | 63 | 189 | 16.0 | 22.0 | 0.00 | 0.00 | 0.00 | 69 | 1011.7 |
| 20260508132104 | 63 | 190 | 16.0 | 21.0 | 0.00 | 0.00 | 0.00 | 70 | 1011.8 |
| 20260508131605 | 62 | 194 | 14.0 | 20.0 | 0.00 | 0.00 | 0.00 | 71 | 1012.0 |
| 20260508130604 | 62 | 200 | 13.0 | 20.0 | 0.00 | 0.00 | 0.00 | 73 | 1012.1 |
| 20260508130104 | 61 | 198 | 13.0 | 21.0 | 0.00 | 0.00 | 0.00 | 73 | 1012.1 |
| 20260508125604 | 61 | 195 | 13.0 | 21.0 | 0.00 | 0.00 | 0.00 | 74 | 1012.0 |
| 20260508125104 | 61 | 202 | 13.0 | 17.0 | 0.00 | 0.00 | 0.00 | 74 | 1012.0 |
| 20260508124104 | 60 | 204 | 12.0 | 18.0 | 0.00 | 0.00 | 0.00 | 75 | 1012.0 |
| 20260508123104 | 59 | 200 | 12.0 | 16.0 | 0.00 | 0.00 | 0.00 | 76 | 1012.0 |
| 20260508122604 | 59 | 198 | 10.0 | 15.0 | 0.00 | 0.00 | 0.00 | 78 | 1011.9 |
| 20260508122104 | 58 | 198 | 10.0 | 15.0 | 0.00 | 0.00 | 0.00 | 79 | 1011.9 |
| 20260508121603 | 58 | 197 | 9.0 | 13.0 | 0.00 | 0.00 | 0.00 | 79 | 1012.0 |
| 20260508121104 | 57 | 194 | 9.0 | 13.0 | 0.00 | 0.00 | 0.00 | 80 | 1012.0 |
| 20260508120604 | 57 | 195 | 9.0 | 12.0 | 0.00 | 0.00 | 0.00 | 80 | 1012.1 |
| 20260508115604 | 57 | 190 | 9.0 | 12.0 | 0.00 | 0.00 | 0.00 | 81 | 1012.0 |
| 20260508115104 | 57 | 197 | 9.0 | 14.0 | 0.00 | 0.00 | 0.00 | 80 | 1012.0 |
| 20260508114604 | 57 | 190 | 9.0 | 14.0 | 0.00 | 0.00 | 0.00 | 80 | 1012.0 |
| 20260508114104 | 57 | 193 | 9.0 | 15.0 | 0.00 | 0.00 | 0.00 | 80 | 1011.9 |
| 20260508113603 | 57 | 192 | 10.0 | 16.0 | 0.00 | 0.00 | 0.00 | 80 | 1011.8 |
| 20260508112604 | 57 | 194 | 10.0 | 16.0 | 0.00 | 0.00 | 0.00 | 79 | 1011.8 |
| 20260508112104 | 58 | 190 | 11.0 | 17.0 | 0.00 | 0.00 | 0.00 | 79 | 1011.7 |
| 20260508111604 | 58 | 195 | 12.0 | 17.0 | 0.00 | 0.00 | 0.00 | 79 | 1011.7 |
| 20260508110603 | 58 | 194 | 12.0 | 16.0 | 0.00 | 0.00 | 0.00 | 79 | 1011.7 |
| 20260508110105 | 57 | 195 | 12.0 | 15.0 | 0.00 | 0.00 | 0.00 | 79 | 1011.7 |
| 20260508105603 | 57 | 193 | 10.0 | 14.0 | 0.00 | 0.00 | 0.00 | 79 | 1011.8 |
| 20260508105104 | 58 | 188 | 10.0 | 16.0 | 0.00 | 0.00 | 0.00 | 79 | 1011.8 |
| 20260508104104 | 58 | 198 | 12.0 | 16.0 | 0.00 | 0.00 | 0.00 | 78 | 1011.7 |
| 20260508103604 | 58 | 198 | 12.0 | 16.0 | 0.00 | 0.00 | 0.00 | 78 | 1011.6 |
| 20260508103104 | 58 | 193 | 12.0 | 16.0 | 0.00 | 0.00 | 0.00 | 78 | 1011.6 |
| 20260508102604 | 58 | 199 | 12.0 | 16.0 | 0.00 | 0.00 | 0.00 | 78 | 1011.5 |
| 20260508102104 | 58 | 197 | 10.0 | 15.0 | 0.00 | 0.00 | 0.00 | 78 | 1011.5 |
| 20260508101603 | 58 | 203 | 12.0 | 15.0 | 0.00 | 0.00 | 0.00 | 78 | 1011.4 |
| 20260508101104 | 58 | 196 | 11.0 | 15.0 | 0.00 | 0.00 | 0.00 | 78 | 1011.4 |
| 20260508100604 | 58 | 196 | 10.0 | 15.0 | 0.00 | 0.00 | 0.00 | 78 | 1011.4 |
| 20260508100104 | 58 | 197 | 11.0 | 15.0 | 0.00 | 0.00 | 0.00 | 77 | 1011.5 |
| 20260508095103 | 58 | 193 | 11.0 | 16.0 | 0.00 | 0.00 | 0.00 | 77 | 1011.4 |
| 20260508094604 | 59 | 200 | 12.0 | 16.0 | 0.00 | 0.00 | 0.00 | 77 | 1011.4 |
| 20260508094104 | 59 | 204 | 12.0 | 15.0 | 0.00 | 0.00 | 0.00 | 77 | 1011.4 |
| 20260508093604 | 59 | 198 | 12.0 | 15.0 | 0.00 | 0.00 | 0.00 | 77 | 1011.4 |
| 20260508092604 | 58 | 198 | 10.0 | 15.0 | 0.00 | 0.00 | 0.00 | 77 | 1011.5 |
| 20260508092104 | 58 | 202 | 10.0 | 14.0 | 0.00 | 0.00 | 0.00 | 77 | 1011.4 |
| 20260508091604 | 58 | 191 | 10.0 | 14.0 | 0.00 | 0.00 | 0.00 | 77 | 1011.5 |
| 20260508091104 | 59 | 199 | 10.0 | 14.0 | 0.00 | 0.00 | 0.00 | 76 | 1011.6 |
| 20260508090604 | 59 | 190 | 11.0 | 14.0 | 0.00 | 0.00 | 0.00 | 76 | 1011.6 |
| 20260508090104 | 59 | 193 | 10.0 | 16.0 | 0.00 | 0.00 | 0.00 | 76 | 1011.6 |
| 20260508085604 | 59 | 193 | 12.0 | 16.0 | 0.00 | 0.00 | 0.00 | 76 | 1011.5 |
| 20260508085104 | 59 | 193 | 10.0 | 16.0 | 0.00 | 0.00 | 0.00 | 75 | 1011.5 |
| 20260508084604 | 59 | 191 | 10.0 | 15.0 | 0.00 | 0.00 | 0.00 | 75 | 1011.5 |
| 20260508084104 | 59 | 189 | 10.0 | 16.0 | 0.00 | 0.00 | 0.00 | 75 | 1011.5 |
| 20260508083603 | 59 | 192 | 11.0 | 17.0 | 0.00 | 0.00 | 0.00 | 75 | 1011.5 |
| 20260508083103 | 59 | 186 | 12.0 | 17.0 | 0.00 | 0.00 | 0.00 | 75 | 1011.5 |
| 20260508082104 | 60 | 190 | 12.0 | 17.0 | 0.00 | 0.00 | 0.00 | 74 | 1011.6 |
| 20260508081604 | 60 | 194 | 11.0 | 20.0 | 0.00 | 0.00 | 0.00 | 74 | 1011.7 |
| 20260508081103 | 60 | 191 | 13.0 | 20.0 | 0.00 | 0.00 | 0.00 | 73 | 1011.7 |
| 20260508080104 | 60 | 190 | 12.0 | 18.0 | 0.00 | 0.00 | 0.00 | 73 | 1011.9 |
| 20260508075603 | 60 | 193 | 11.0 | 17.0 | 0.00 | 0.00 | 0.00 | 72 | 1011.9 |
| 20260508074603 | 60 | 181 | 12.0 | 20.0 | 0.00 | 0.00 | 0.00 | 72 | 1012.1 |
| 20260508074104 | 60 | 192 | 13.0 | 20.0 | 0.00 | 0.00 | 0.00 | 71 | 1012.1 |
| 20260508073603 | 60 | 189 | 12.0 | 18.0 | 0.00 | 0.00 | 0.00 | 71 | 1012.1 |
| 20260508072603 | 61 | 186 | 12.0 | 18.0 | 0.00 | 0.00 | 0.00 | 70 | 1012.3 |
| 20260508072104 | 60 | 183 | 12.0 | 15.0 | 0.00 | 0.00 | 0.00 | 70 | 1012.4 |
| 20260508071603 | 60 | 184 | 11.0 | 15.0 | 0.00 | 0.00 | 0.00 | 70 | 1012.5 |
| 20260508071103 | 60 | 186 | 10.0 | 15.0 | 0.00 | 0.00 | 0.00 | 69 | 1012.6 |
| 20260508070604 | 60 | 185 | 12.0 | 15.0 | 0.00 | 0.00 | 0.00 | 69 | 1012.6 |
| 20260508070104 | 61 | 185 | 11.0 | 18.0 | 0.00 | 0.00 | 0.00 | 68 | 1012.6 |
| 20260508065604 | 61 | 184 | 11.0 | 18.0 | 0.00 | 0.00 | 0.00 | 67 | 1012.6 |
| 20260508065104 | 61 | 182 | 12.0 | 17.0 | 0.00 | 0.00 | 0.00 | 67 | 1012.7 |
| 20260508064603 | 61 | 183 | 11.0 | 17.0 | 0.00 | 0.00 | 0.00 | 66 | 1012.8 |
| 20260508063603 | 61 | 187 | 12.0 | 16.0 | 0.00 | 0.00 | 0.00 | 65 | 1012.8 |
| 20260508062604 | 61 | 181 | 12.0 | 18.0 | 0.00 | 0.00 | 0.00 | 63 | 1012.9 |
| 20260508061604 | 61 | 178 | 11.0 | 16.0 | 0.00 | 0.00 | 0.00 | 63 | 1013.0 |
| 20260508061104 | 62 | 177 | 10.0 | 17.0 | 0.00 | 0.00 | 0.00 | 62 | 1013.0 |
| 20260508060604 | 62 | 178 | 10.0 | 17.0 | 0.00 | 0.00 | 0.00 | 62 | 1013.1 |
| 20260508060104 | 62 | 185 | 9.0 | 17.0 | 0.00 | 0.00 | 0.00 | 61 | 1013.1 |
| 20260508055603 | 62 | 184 | 9.0 | 14.0 | 0.00 | 0.00 | 0.00 | 61 | 1013.1 |
| 20260508055104 | 62 | 166 | 10.0 | 15.0 | 0.00 | 0.00 | 0.00 | 60 | 1013.1 |
| 20260508054104 | 63 | 174 | 9.0 | 15.0 | 0.00 | 0.00 | 0.00 | 60 | 1013.1 |
| 20260508053104 | 63 | 186 | 10.0 | 15.0 | 0.00 | 0.00 | 0.00 | 58 | 1013.1 |
| 20260508052604 | 63 | 167 | 10.0 | 20.0 | 0.00 | 0.00 | 0.00 | 57 | 1013.2 |
| 20260508051604 | 64 | 166 | 12.0 | 16.0 | 0.00 | 0.00 | 0.00 | 57 | 1013.1 |
| 20260508050604 | 64 | 177 | 10.0 | 17.0 | 0.00 | 0.00 | 0.00 | 56 | 1013.2 |
| 20260508050103 | 64 | 169 | 10.0 | 15.0 | 0.00 | 0.00 | 0.00 | 56 | 1013.1 |
| 20260508045604 | 64 | 180 | 10.0 | 17.0 | 0.00 | 0.00 | 0.00 | 55 | 1013.2 |
| 20260508045104 | 64 | 165 | 9.0 | 17.0 | 0.00 | 0.00 | 0.00 | 55 | 1013.2 |
| 20260508044604 | 64 | 172 | 9.0 | 13.0 | 0.00 | 0.00 | 0.00 | 55 | 1013.2 |
| 20260508043103 | 64 | 167 | 9.0 | 12.0 | 0.00 | 0.00 | 0.00 | 55 | 1013.5 |
| 20260508042603 | 64 | 179 | 9.0 | 14.0 | 0.00 | 0.00 | 0.00 | 55 | 1013.6 |
| 20260508042104 | 64 | 167 | 8.0 | 14.0 | 0.00 | 0.00 | 0.00 | 54 | 1013.5 |
| 20260508041604 | 64 | 167 | 8.0 | 12.0 | 0.00 | 0.00 | 0.00 | 54 | 1013.5 |
| 20260508041103 | 64 | 174 | 9.0 | 12.0 | 0.00 | 0.00 | 0.00 | 54 | 1013.5 |
| 20260508040604 | 65 | 171 | 7.0 | 14.0 | 0.00 | 0.00 | 0.00 | 54 | 1013.5 |
| 20260508040104 | 65 | 161 | 10.0 | 15.0 | 0.00 | 0.00 | 0.00 | 54 | 1013.5 |
| 20260508035604 | 65 | 178 | 8.0 | 15.0 | 0.00 | 0.00 | 0.00 | 53 | 1013.5 |
| 20260508035104 | 65 | 162 | 9.0 | 15.0 | 0.00 | 0.00 | 0.00 | 53 | 1013.5 |
| 20260508034604 | 65 | 168 | 9.0 | 13.0 | 0.00 | 0.00 | 0.00 | 53 | 1013.5 |
| 20260508034103 | 65 | 175 | 7.0 | 13.0 | 0.00 | 0.00 | 0.00 | 53 | 1013.5 |
| 20260508033604 | 65 | 177 | 7.0 | 12.0 | 0.00 | 0.00 | 0.00 | 53 | 1013.5 |
| 20260508033104 | 66 | 172 | 6.0 | 12.0 | 0.00 | 0.00 | 0.00 | 51 | 1013.5 |
| 20260508032604 | 66 | 172 | 7.0 | 10.0 | 0.00 | 0.00 | 0.00 | 51 | 1013.5 |
| 20260508031604 | 66 | 172 | 7.0 | 12.0 | 0.00 | 0.00 | 0.00 | 50 | 1013.5 |
| 20260508031104 | 66 | 171 | 7.0 | 12.0 | 0.00 | 0.00 | 0.00 | 50 | 1013.6 |
| 20260508030603 | 67 | 173 | 7.0 | 12.0 | 0.00 | 0.00 | 0.00 | 48 | 1013.6 |
| 20260508030103 | 67 | 166 | 7.0 | 12.0 | 0.00 | 0.00 | 0.00 | 48 | 1013.6 |
| 20260508025603 | 67 | 168 | 7.0 | 12.0 | 0.00 | 0.00 | 0.00 | 47 | 1013.5 |
| 20260508024104 | 66 | 174 | 6.0 | 12.0 | 0.00 | 0.00 | 0.00 | 46 | 1013.3 |
| 20260508023603 | 66 | 158 | 5.0 | 7.0 | 0.00 | 0.00 | 0.00 | 46 | 1013.2 |
| 20260508023104 | 67 | 157 | 5.0 | 6.0 | 0.00 | 0.00 | 0.00 | 45 | 1013.2 |
| 20260508021104 | 68 | 164 | 5.0 | 7.0 | 0.00 | 0.00 | 0.00 | 44 | 1013.2 |
| 20260508020604 | 68 | 163 | 5.0 | 6.0 | 0.00 | 0.00 | 0.00 | 44 | 1013.2 |
| 20260508015104 | 69 | 162 | 5.0 | 7.0 | 0.00 | 0.00 | 0.00 | 43 | 1013.1 |
| 20260508014604 | 69 | 164 | 5.0 | 9.0 | 0.00 | 0.00 | 0.00 | 43 | 1013.1 |
| 20260508014103 | 70 | 174 | 5.0 | 9.0 | 0.00 | 0.00 | 0.00 | 43 | 1013.1 |
| 20260508013604 | 70 | 174 | 6.0 | 9.0 | 0.00 | 0.00 | 0.00 | 42 | 1013.0 |
| 20260508012603 | 71 | 176 | 5.0 | 9.0 | 0.00 | 0.00 | 0.00 | 40 | 1013.0 |
| 20260508012104 | 71 | 168 | 6.0 | 9.0 | 0.00 | 0.00 | 0.00 | 39 | 1012.9 |
| 20260508011603 | 72 | 171 | 5.0 | 9.0 | 0.00 | 0.00 | 0.00 | 38 | 1012.9 |
| 20260508011103 | 72 | 184 | 5.0 | 12.0 | 0.00 | 0.00 | 0.00 | 38 | 1012.8 |
| 20260508010604 | 72 | 181 | 6.0 | 12.0 | 0.00 | 0.00 | 0.00 | 38 | 1012.8 |
| 20260508010104 | 73 | 176 | 6.0 | 9.0 | 0.00 | 0.00 | 0.00 | 38 | 1012.8 |
| 20260508005603 | 73 | 164 | 6.0 | 9.0 | 0.00 | 0.00 | 0.00 | 37 | 1012.7 |
| 20260508005103 | 74 | 169 | 7.0 | 9.0 | 0.00 | 0.00 | 0.00 | 36 | 1012.7 |
| 20260508002104 | 75 | 182 | 7.0 | 10.0 | 0.00 | 0.00 | 0.00 | 33 | 1012.5 |
| 20260508000603 | 76 | 181 | 8.0 | 10.0 | 0.00 | 0.00 | 0.00 | 31 | 1012.6 |
| 20260507235103 | 76 | 186 | 6.0 | 12.0 | 0.00 | 0.00 | 0.00 | 31 | 1012.6 |
| 20260507234604 | 76 | 201 | 9.0 | 12.0 | 0.00 | 0.00 | 0.00 | 31 | 1012.6 |
| 20260507234104 | 76 | 154 | 6.0 | 10.0 | 0.00 | 0.00 | 0.00 | 31 | 1012.7 |
| 20260507233605 | 76 | 192 | 4.0 | 12.0 | 0.00 | 0.00 | 0.00 | 31 | 1012.8 |
| 20260507233105 | 77 | 220 | 9.0 | 12.0 | 0.00 | 0.00 | 0.00 | 31 | 1012.8 |
| 20260507232606 | 77 | 197 | 6.0 | 12.0 | 0.00 | 0.00 | 0.00 | 31 | 1012.8 |
| 20260507232105 | 77 | 217 | 7.0 | 15.0 | 0.00 | 0.00 | 0.00 | 32 | 1012.9 |
| 20260507231606 | 77 | 176 | 7.0 | 15.0 | 0.00 | 0.00 | 0.00 | 31 | 1012.9 |
| 20260507231105 | 77 | 247 | 3.0 | 10.0 | 0.00 | 0.00 | 0.00 | 33 | 1012.9 |
| 20260507230605 | 77 | 225 | 6.0 | 10.0 | 0.00 | 0.00 | 0.00 | 33 | 1013.0 |
| 20260507225605 | 77 | 208 | 3.0 | 12.0 | 0.00 | 0.00 | 0.00 | 32 | 1013.2 |
| 20260507225106 | 77 | 272 | 5.0 | 12.0 | 0.00 | 0.00 | 0.00 | 33 | 1013.3 |
| 20260507224606 | 77 | 266 | 7.0 | 12.0 | 0.00 | 0.00 | 0.00 | 33 | 1013.2 |
| 20260507224105 | 77 | 206 | 8.0 | 12.0 | 0.00 | 0.00 | 0.00 | 32 | 1013.3 |
| 20260507223605 | 76 | 196 | 4.0 | 10.0 | 0.00 | 0.00 | 0.00 | 33 | 1013.2 |
| 20260507223105 | 77 | 188 | 5.0 | 14.0 | 0.00 | 0.00 | 0.00 | 33 | 1013.3 |
| 20260507222605 | 77 | 209 | 8.0 | 14.0 | 0.00 | 0.00 | 0.00 | 33 | 1013.3 |
| 20260507222105 | 77 | 229 | 2.0 | 7.0 | 0.00 | 0.00 | 0.00 | 34 | 1013.3 |
| 20260507221605 | 77 | 314 | 3.0 | 9.0 | 0.00 | 0.00 | 0.00 | 34 | 1013.4 |
| 20260507221106 | 76 | 226 | 4.0 | 10.0 | 0.00 | 0.00 | 0.00 | 33 | 1013.5 |
| 20260507220105 | 76 | 209 | 6.0 | 14.0 | 0.00 | 0.00 | 0.00 | 34 | 1013.6 |
| 20260507215605 | 76 | 202 | 8.0 | 15.0 | 0.00 | 0.00 | 0.00 | 33 | 1013.6 |
| 20260507214105 | 77 | 273 | 5.0 | 14.0 | 0.00 | 0.00 | 0.00 | 35 | 1013.6 |
| 20260507213605 | 76 | 215 | 6.0 | 12.0 | 0.00 | 0.00 | 0.00 | 33 | 1013.7 |